THY4ES LTAJ-LTFM

Flight info

Callsign THY4ES
Flight time 1h 12m
Altitude 32000
Route BOYAT UL605 BALAX UA17 YUCEL UL605 YAVRU UA4 ERSEN
Aircraft B77W/H-SDE1E2E3FGHIJ2J3J4J5M1RWXY/LB1D1

Departure

Time 2026-05-01 09:13
Airport Gaziantep Oğuzeli International Airport (LTAJ)

Arrival

Time 2026-05-01 10:25
Airport İstanbul Airport (LTFM)
Time Latitude Longitude Altitude Speed Heading
2026-05-01 08:56 36.94530 37.47646 2227 ft 0 kts 198°
2026-05-01 09:05 36.94534 37.47647 2226 ft 2 kts 198°
2026-05-01 09:05 36.94549 37.47654 2228 ft 2 kts 198°
2026-05-01 09:06 36.94565 37.47660 2226 ft 2 kts 197°
2026-05-01 09:06 36.94581 37.47663 2225 ft 2 kts 177°
2026-05-01 09:06 36.94597 37.47660 2225 ft 2 kts 156°
2026-05-01 09:06 36.94610 37.47649 2225 ft 2 kts 129°
2026-05-01 09:07 36.94614 37.47643 2224 ft 0 kts 103°
2026-05-01 09:07 36.94613 37.47646 2225 ft 1 kts 103°
2026-05-01 09:08 36.94608 37.47672 2225 ft 4 kts 105°
2026-05-01 09:08 36.94600 37.47709 2226 ft 4 kts 105°
2026-05-01 09:08 36.94597 37.47747 2227 ft 5 kts 80°
2026-05-01 09:08 36.94623 37.47784 2227 ft 7 kts 37°
2026-05-01 09:09 36.94641 37.47844 2227 ft 8 kts 91°
2026-05-01 09:09 36.94626 37.47932 2226 ft 14 kts 105°
2026-05-01 09:09 36.94591 37.48095 2227 ft 25 kts 105°
2026-05-01 09:09 36.94543 37.48318 2227 ft 27 kts 105°
2026-05-01 09:10 36.94492 37.48553 2227 ft 29 kts 105°
2026-05-01 09:10 36.94440 37.48796 2226 ft 26 kts 105°
2026-05-01 09:10 36.94394 37.49016 2229 ft 26 kts 104°
2026-05-01 09:10 36.94348 37.49223 2229 ft 20 kts 104°
2026-05-01 09:11 36.94333 37.49377 2224 ft 13 kts 62°
2026-05-01 09:11 36.94395 37.49421 2226 ft 8 kts 19°
2026-05-01 09:11 36.94451 37.49420 2226 ft 9 kts 328°
2026-05-01 09:11 36.94485 37.49357 2226 ft 9 kts 290°
2026-05-01 09:12 36.94504 37.49279 2225 ft 14 kts 286°
2026-05-01 09:12 36.94604 37.48815 2227 ft 101 kts 285°
2026-05-01 09:12 36.94867 37.47605 2227 ft 186 kts 286°
2026-05-01 09:12 36.95228 37.45831 2680 ft 218 kts 284°
2026-05-01 09:13 36.95590 37.43990 3564 ft 212 kts 284°
2026-05-01 09:13 36.96249 37.42375 4104 ft 219 kts 300°
2026-05-01 09:13 36.96958 37.40569 4277 ft 244 kts 289°
2026-05-01 09:13 36.97637 37.38610 4660 ft 262 kts 291°
2026-05-01 09:14 36.98382 37.36466 5308 ft 272 kts 290°
2026-05-01 09:14 36.99142 37.34291 6192 ft 273 kts 292°
2026-05-01 09:14 37.00314 37.32369 6760 ft 289 kts 322°
2026-05-01 09:14 37.02130 37.31223 7417 ft 295 kts 335°
2026-05-01 09:15 37.04017 37.30133 8167 ft 301 kts 330°
2026-05-01 09:15 37.05856 37.28887 9077 ft 301 kts 327°
2026-05-01 09:15 37.07665 37.27571 9980 ft 302 kts 326°
2026-05-01 09:15 37.09501 37.26215 10550 ft 314 kts 326°
2026-05-01 09:16 37.11415 37.24705 10743 ft 337 kts 320°
2026-05-01 09:16 37.13252 37.22731 10946 ft 359 kts 311°
2026-05-01 09:16 37.14978 37.20352 11299 ft 376 kts 307°
2026-05-01 09:17 37.18398 37.15186 12915 ft 390 kts 307°
2026-05-01 09:17 37.20148 37.12563 13915 ft 393 kts 307°
2026-05-01 09:17 37.23732 37.07283 15592 ft 402 kts 308°
2026-05-01 09:18 37.25564 37.04597 16393 ft 407 kts 308°
2026-05-01 09:18 37.29345 36.99185 18025 ft 417 kts 309°
2026-05-01 09:19 37.33256 36.93678 19468 ft 426 kts 309°
2026-05-01 09:19 37.35205 36.90920 20199 ft 429 kts 309°
2026-05-01 09:19 37.37189 36.88107 20927 ft 432 kts 309°
2026-05-01 09:20 37.41205 36.82392 22295 ft 440 kts 309°
2026-05-01 09:20 37.45295 36.76556 23607 ft 447 kts 309°
2026-05-01 09:21 37.49420 36.70668 24661 ft 454 kts 309°
2026-05-01 09:21 37.51519 36.67674 25189 ft 457 kts 309°
2026-05-01 09:21 37.55788 36.61656 26214 ft 463 kts 309°
2026-05-01 09:22 37.60114 36.55550 27205 ft 470 kts 309°
2026-05-01 09:22 37.64493 36.49346 28084 ft 477 kts 309°
2026-05-01 09:23 37.66704 36.46209 28526 ft 480 kts 309°
2026-05-01 09:23 37.71194 36.39910 29307 ft 485 kts 309°
2026-05-01 09:24 37.74937 36.34656 30250 ft 482 kts 308°
2026-05-01 09:24 37.77147 36.31493 30781 ft 479 kts 308°
2026-05-01 09:24 37.81515 36.25166 31680 ft 477 kts 308°
2026-05-01 09:25 37.85916 36.18830 31952 ft 482 kts 308°
2026-05-01 09:26 37.92553 36.09439 31999 ft 473 kts 308°
2026-05-01 09:26 37.99119 36.00094 31975 ft 473 kts 308°
2026-05-01 09:27 38.05644 35.90759 31983 ft 473 kts 308°
2026-05-01 09:28 38.10006 35.84505 31967 ft 473 kts 308°
2026-05-01 09:28 38.14364 35.78249 31978 ft 472 kts 308°
2026-05-01 09:29 38.20884 35.68851 31967 ft 471 kts 307°
2026-05-01 09:30 38.27336 35.59494 31956 ft 471 kts 308°
2026-05-01 09:30 38.33812 35.50086 31946 ft 470 kts 308°
2026-05-01 09:31 38.38122 35.43807 31949 ft 471 kts 308°
2026-05-01 09:32 38.44576 35.34377 31951 ft 470 kts 308°
2026-05-01 09:32 38.51026 35.24926 31941 ft 470 kts 307°
2026-05-01 09:33 38.55269 35.18639 31929 ft 470 kts 307°
2026-05-01 09:34 38.61579 35.09075 31945 ft 468 kts 307°
2026-05-01 09:34 38.67872 34.99510 31942 ft 468 kts 307°
2026-05-01 09:35 38.74171 34.89929 31952 ft 468 kts 307°
2026-05-01 09:36 38.78370 34.83524 31945 ft 469 kts 306°
2026-05-01 09:36 38.82566 34.77115 31942 ft 469 kts 306°
2026-05-01 09:37 38.86724 34.70749 31941 ft 468 kts 306°
2026-05-01 09:37 38.92989 34.61128 31939 ft 468 kts 306°
2026-05-01 09:38 38.99250 34.51487 31943 ft 467 kts 306°
2026-05-01 09:39 39.05488 34.41847 31939 ft 468 kts 306°
2026-05-01 09:39 39.09622 34.35443 31947 ft 467 kts 305°
2026-05-01 09:40 39.15090 34.25173 31924 ft 466 kts 305°
2026-05-01 09:41 39.19362 34.18841 31930 ft 468 kts 307°
2026-05-01 09:41 39.25679 34.09204 31949 ft 469 kts 306°
2026-05-01 09:42 39.29819 34.02764 31952 ft 469 kts 306°
2026-05-01 09:43 39.38172 33.89860 31950 ft 468 kts 306°
2026-05-01 09:43 39.42351 33.83433 31952 ft 467 kts 306°
2026-05-01 09:44 39.48572 33.73707 31949 ft 467 kts 304°
2026-05-01 09:45 39.52603 33.67123 31939 ft 466 kts 304°
2026-05-01 09:45 39.58681 33.57250 31942 ft 467 kts 304°
2026-05-01 09:46 39.62794 33.50805 31937 ft 467 kts 306°
2026-05-01 09:46 39.85824 33.14698 31972 ft 467 kts 304°
2026-05-01 09:47 40.06679 32.81514 31955 ft 469 kts 303°
2026-05-01 09:47 40.10447 32.74628 31963 ft 465 kts 299°
2026-05-01 09:48 40.20919 32.54764 32093 ft 461 kts 299°
2026-05-01 09:48 40.30597 32.36362 32039 ft 463 kts 299°
2026-05-01 09:48 40.55558 31.88433 32095 ft 461 kts 298°
2026-05-01 09:49 40.56623 31.86293 32099 ft 459 kts 295°
2026-05-01 09:50 40.56999 31.85465 32092 ft 458 kts 294°
2026-05-01 09:50 40.59482 31.78430 32101 ft 449 kts 283°
2026-05-01 09:51 40.61367 31.70620 32113 ft 448 kts 282°
2026-05-01 09:51 40.63283 31.62804 32127 ft 448 kts 282°
2026-05-01 09:52 40.65210 31.55011 32140 ft 447 kts 282°
2026-05-01 09:52 40.67131 31.47215 32134 ft 446 kts 282°
2026-05-01 09:53 40.69030 31.39475 32122 ft 446 kts 282°
2026-05-01 09:53 40.70928 31.31715 32128 ft 443 kts 282°
2026-05-01 09:54 40.71872 31.27853 31895 ft 442 kts 282°
2026-05-01 09:54 40.72812 31.23986 31516 ft 444 kts 282°
2026-05-01 09:54 40.73755 31.20102 31218 ft 444 kts 282°
2026-05-01 09:54 40.74696 31.16225 31038 ft 442 kts 281°
2026-05-01 09:55 40.75629 31.12384 30891 ft 439 kts 281°
2026-05-01 09:55 40.76557 31.08555 30752 ft 436 kts 281°
2026-05-01 09:55 40.77475 31.04750 30521 ft 436 kts 281°
2026-05-01 09:55 40.78395 31.00929 30278 ft 436 kts 281°
2026-05-01 09:56 40.79310 30.97118 30045 ft 436 kts 281°
2026-05-01 09:56 40.80225 30.93307 29818 ft 435 kts 281°
2026-05-01 09:56 40.81138 30.89506 29562 ft 433 kts 281°
2026-05-01 09:56 40.82045 30.85718 28927 ft 433 kts 281°
2026-05-01 09:57 40.82938 30.81993 28437 ft 428 kts 281°
2026-05-01 09:57 40.83829 30.78264 27825 ft 425 kts 281°
2026-05-01 09:57 40.84709 30.74571 27492 ft 416 kts 281°
2026-05-01 09:57 40.85565 30.70990 27355 ft 403 kts 280°
2026-05-01 09:58 40.86394 30.67504 27179 ft 391 kts 280°
2026-05-01 09:58 40.87032 30.64091 26758 ft 378 kts 272°
2026-05-01 09:58 40.87317 30.60682 26418 ft 369 kts 269°
2026-05-01 09:58 40.87550 30.57307 25999 ft 368 kts 269°
2026-05-01 09:59 40.87829 30.53943 25595 ft 368 kts 270°
2026-05-01 09:59 40.88141 30.50582 25206 ft 368 kts 272°
2026-05-01 09:59 40.88723 30.47262 24765 ft 377 kts 284°
2026-05-01 09:59 40.89844 30.44099 24381 ft 383 kts 293°
2026-05-01 10:00 40.91366 30.41175 23902 ft 391 kts 304°
2026-05-01 10:00 40.93227 30.38512 23490 ft 392 kts 306°
2026-05-01 10:00 40.95067 30.35864 22996 ft 390 kts 305°
2026-05-01 10:00 40.96873 30.33201 22513 ft 387 kts 305°
2026-05-01 10:01 40.98654 30.30554 22120 ft 382 kts 305°
2026-05-01 10:01 41.00409 30.27939 21666 ft 379 kts 305°
2026-05-01 10:01 41.02149 30.25342 21261 ft 375 kts 305°
2026-05-01 10:01 41.03877 30.22765 20841 ft 371 kts 305°
2026-05-01 10:02 41.05434 30.20175 20402 ft 354 kts 294°
2026-05-01 10:02 41.06193 30.17196 20082 ft 335 kts 272°
2026-05-01 10:02 41.06135 30.14158 19712 ft 327 kts 257°
2026-05-01 10:02 41.05508 30.11282 19370 ft 325 kts 248°
2026-05-01 10:03 41.04522 30.08581 18971 ft 326 kts 237°
2026-05-01 10:03 41.02942 30.06442 18623 ft 326 kts 221°
2026-05-01 10:03 41.01151 30.04526 18227 ft 334 kts 223°
2026-05-01 10:03 40.99392 30.02488 17813 ft 337 kts 224°
2026-05-01 10:04 40.97638 30.00426 17418 ft 336 kts 224°
2026-05-01 10:04 40.95884 29.98375 17032 ft 335 kts 224°
2026-05-01 10:04 40.94157 29.96369 16667 ft 334 kts 224°
2026-05-01 10:04 40.92413 29.94347 16299 ft 333 kts 224°
2026-05-01 10:05 40.90668 29.92326 15929 ft 333 kts 224°
2026-05-01 10:05 40.88935 29.90307 15536 ft 328 kts 226°
2026-05-01 10:05 40.87567 29.87962 15169 ft 320 kts 246°
2026-05-01 10:05 40.86896 29.85185 14928 ft 318 kts 260°
2026-05-01 10:06 40.86750 29.82245 14654 ft 323 kts 270°
2026-05-01 10:06 40.86771 29.79265 14369 ft 326 kts 269°
2026-05-01 10:06 40.86749 29.76256 14079 ft 327 kts 269°
2026-05-01 10:06 40.86716 29.73247 13745 ft 327 kts 269°
2026-05-01 10:07 40.86680 29.70245 13437 ft 326 kts 269°
2026-05-01 10:07 40.86642 29.67288 13142 ft 325 kts 269°
2026-05-01 10:07 40.86623 29.64309 12847 ft 324 kts 271°
2026-05-01 10:07 40.86823 29.61345 12564 ft 322 kts 277°
2026-05-01 10:08 40.87495 29.55590 11992 ft 311 kts 278°
2026-05-01 10:08 40.87805 29.52782 11718 ft 306 kts 277°
2026-05-01 10:08 40.88099 29.50006 11452 ft 302 kts 277°
2026-05-01 10:09 40.88382 29.47272 11176 ft 298 kts 277°
2026-05-01 10:09 40.88603 29.44578 10990 ft 290 kts 275°
2026-05-01 10:09 40.88759 29.41987 10810 ft 283 kts 274°
2026-05-01 10:09 40.88902 29.39444 10723 ft 272 kts 274°
2026-05-01 10:10 40.89041 29.36973 10470 ft 268 kts 274°
2026-05-01 10:10 40.89182 29.34536 10235 ft 263 kts 274°
2026-05-01 10:10 40.89460 29.29785 9642 ft 258 kts 275°
2026-05-01 10:11 40.89601 29.27413 9261 ft 259 kts 275°
2026-05-01 10:11 40.89694 29.25843 9050 ft 259 kts 275°
2026-05-01 10:11 40.89834 29.23473 8738 ft 258 kts 276°
2026-05-01 10:11 40.89974 29.21107 8442 ft 257 kts 276°
2026-05-01 10:12 40.90113 29.18752 8148 ft 256 kts 276°
2026-05-01 10:12 40.90251 29.16399 7886 ft 256 kts 277°
2026-05-01 10:12 40.90528 29.11703 7309 ft 257 kts 277°
2026-05-01 10:13 40.90664 29.09357 6857 ft 254 kts 277°
2026-05-01 10:13 40.90798 29.07050 6460 ft 249 kts 277°
2026-05-01 10:13 40.90929 29.04788 6008 ft 244 kts 278°
2026-05-01 10:14 40.91182 29.00429 5275 ft 230 kts 279°
2026-05-01 10:14 40.91362 28.98359 5082 ft 227 kts 281°
2026-05-01 10:14 40.91557 28.96251 4852 ft 234 kts 281°
2026-05-01 10:14 40.91752 28.94091 4585 ft 239 kts 281°
2026-05-01 10:15 40.91945 28.91906 4317 ft 239 kts 281°
2026-05-01 10:15 40.92134 28.89743 4072 ft 233 kts 281°
2026-05-01 10:15 40.92313 28.87681 4019 ft 221 kts 281°
2026-05-01 10:15 40.92487 28.85674 4028 ft 217 kts 281°
2026-05-01 10:16 40.92661 28.83673 4048 ft 223 kts 281°
2026-05-01 10:16 40.92841 28.81618 4012 ft 227 kts 282°
2026-05-01 10:16 40.94325 28.78589 4033 ft 196 kts 335°
2026-05-01 10:17 40.95526 28.77670 3999 ft 201 kts 333°
2026-05-01 10:17 40.97932 28.76177 3984 ft 183 kts
2026-05-01 10:17 40.99221 28.76236 4026 ft 191 kts
2026-05-01 10:18 41.01768 28.76144 4031 ft 170 kts
2026-05-01 10:18 41.02931 28.76114 3999 ft 164 kts
2026-05-01 10:18 41.04073 28.76090 3996 ft 165 kts
2026-05-01 10:19 41.05221 28.76068 3988 ft 163 kts
2026-05-01 10:19 41.06323 28.76046 3979 ft 152 kts
2026-05-01 10:19 41.07355 28.76028 3996 ft 145 kts
2026-05-01 10:20 41.09340 28.75988 3725 ft 140 kts
2026-05-01 10:20 41.10300 28.75970 3546 ft 139 kts
2026-05-01 10:20 41.11266 28.75952 3373 ft 139 kts
2026-05-01 10:20 41.12247 28.75934 3166 ft 139 kts
2026-05-01 10:21 41.13188 28.75918 2981 ft 136 kts
2026-05-01 10:21 41.15093 28.75881 2646 ft 138 kts
2026-05-01 10:21 41.16054 28.75860 2445 ft 136 kts
2026-05-01 10:22 41.17929 28.75826 2098 ft 138 kts
2026-05-01 10:22 41.19805 28.75793 1666 ft 129 kts
2026-05-01 10:23 41.20694 28.75776 1503 ft 128 kts
2026-05-01 10:23 41.22497 28.75744 1144 ft 130 kts
2026-05-01 10:23 41.23401 28.75725 945 ft 129 kts
2026-05-01 10:24 41.25195 28.75686 573 ft 132 kts
2026-05-01 10:24 41.26923 28.75659 310 ft 101 kts 359°
2026-05-01 10:25 41.27616 28.75589 297 ft 8 kts 283°
2026-05-01 10:25 41.27621 28.75510 300 ft 0 kts 271°
2026-05-01 10:29 41.27621 28.75494 299 ft 7 kts 271°